GFSNW_con_lsi_249.txt.gz
Lid_Strength_Index
6 6 6 6 5 6 6 9 12 7 6 11 10 11 9 8 8 7 8 8 9 10 9 10 11 11 9 8 10 13 11 12 15 14 12 11 12 13 13 16 17 15 15 16
6 6 6 6 6 6 8 12 12 7 8 14 12 9 9 10 10 9 9 10 8 8 10 12 10 9 7 8 11 11 11 13 16 15 14 14 15 13 13 12 13 16 18 16
6 6 6 6 6 6 8 12 16 13 11 11 14 14 13 12 11 11 11 12 10 11 11 9 11 10 11 10 10 10 10 12 14 16 14 13 15 14 13 13 16 15 15 13
4 5 6 6 6 6 8 13 15 14 16 15 15 15 16 16 15 13 12 14 13 14 14 13 12 12 12 12 10 11 11 16 14 13 12 12 13 13 14 15 14 16 14 13
4 4 5 5 5 6 9 13 13 13 15 14 15 16 16 15 15 15 15 16 15 15 15 15 15 14 14 14 12 12 12 15 14 16 13 13 14 13 13 13 13 13 13 13
3 4 4 4 4 5 9 9 9 12 14 14 15 15 14 14 13 12 12 13 14 15 13 12 12 12 12 12 13 14 14 15 15 17 14 15 17 15 14 13 12 12 14 11
-1 -0 3 3 3 4 6 8 9 12 15 13 14 14 13 14 13 14 13 12 13 11 9 10 11 12 12 12 12 11 14 14 14 17 16 21 14 12 12 13 12 11 10 10
-1 -1 -1 -0 1 3 4 5 9 12 14 12 12 12 13 12 12 13 13 12 10 9 11 14 15 15 15 14 13 12 12 14 16 18 18 15 14 13 14 14 14 11 11 10
-2 -1 -1 -1 -1 -0 2 4 5 9 11 12 10 12 11 13 13 13 12 10 9 10 13 15 18 19 17 17 15 12 12 12 15 15 18 20 15 12 11 11 17 11 10 10
-2 -1 -1 -1 -1 -1 1 3 3 8 10 8 8 11 11 10 11 12 11 10 11 9 13 15 16 16 13 17 18 18 16 15 16 16 17 15 12 10 9 16 15 9 8 8
-1 -1 -1 -1 -1 -1 1 2 2 6 8 8 7 7 8 8 8 11 10 11 10 12 14 14 13 14 13 13 13 14 15 16 16 15 17 18 8 10 12 9 8 7 8 7
-1 -1 -1 -1 -1 -0 -0 3 1 1 6 6 4 4 4 4 5 7 7 8 9 8 10 10 11 12 12 12 15 9 13 11 12 12 12 9 8 7 7 6 7 7 7 7
-1 -1 -1 -1 -1 -0 -0 1 1 3 6 6 6 6 4 3 3 2 8 7 6 7 5 8 10 12 10 14 13 11 9 8 10 10 9 8 7 7 7 6 7 6 7 7
-1 -1 -1 -1 -1 -1 -0 2 0 2 5 9 7 3 5 2 2 3 3 4 4 5 5 8 9 11 8 11 10 11 9 9 10 10 8 8 7 6 6 6 6 6 7 7
-1 -1 -1 -1 -1 -1 -1 -1 -0 -1 4 8 7 4 4 3 3 4 4 4 5 6 8 9 10 8 9 9 9 11 8 9 11 11 8 8 7 6 5 7 7 7 8 9
-1 -1 -1 -1 -1 -0 1 4 0 -1 0 6 9 4 6 5 4 4 5 5 6 7 8 8 7 6 8 11 12 8 6 6 6 7 5 6 6 8 8 8 7 7 7 8
-1 -1 -1 -1 -1 0 3 5 1 -1 -0 6 8 8 6 6 5 5 6 5 6 7 7 8 8 7 7 10 12 8 8 8 6 6 8 9 9 8 8 9 9 8 8 8
-1 -1 -1 -1 -1 -0 3 -0 -1 -1 3 5 9 8 7 5 7 8 5 7 7 6 7 7 8 8 8 11 8 8 9 10 9 9 9 10 10 10 10 10 9 10 10 10
-1 -1 -1 -0 1 3 3 -1 -1 -1 3 7 7 9 10 7 7 7 7 7 9 6 8 8 8 9 11 10 12 12 12 13 13 12 12 11 11 11 11 10 10 10 10 10
-1 -0 3 6 4 -1 -0 3 5 5 5 5 8 6 9 7 8 8 8 8 9 11 9 9 10 10 10 13 13 13 14 13 12 13 12 12 12 11 11 11 10 10 10 11
3 6 6 5 2 4 5 7 8 7 9 7 7 6 8 6 9 9 8 9 9 12 11 12 12 12 13 13 14 14 14 14 13 12 12 11 10 10 12 12 11 11 11 11
5 5 5 5 6 8 9 10 10 10 11 9 9 9 7 7 6 8 8 11 11 14 11 13 14 14 14 14 15 14 14 14 13 12 12 12 11 11 12 12 12 12 12 12
5 7 9 9 12 13 13 16 13 12 10 10 10 11 9 9 8 9 10 13 14 12 15 15 14 15 14 14 14 14 13 14 13 13 13 13 13 13 13 13 12 12 13 13
8 10 14 13 14 14 12 12 12 12 11 11 10 11 11 10 12 11 14 14 14 17 19 18 16 15 15 14 14 14 14 14 14 14 14 14 14 14 14 13 13 13 13 13
12 12 14 16 15 15 15 14 13 13 11 11 12 12 11 13 14 13 15 17 18 17 18 17 15 15 15 15 15 15 15 16 16 15 15 15 15 15 15 13 13 13 14 13
14 16 17 15 15 15 14 14 14 14 13 11 11 13 14 15 15 17 17 18 18 18 16 15 14 15 15 15 15 15 15 15 15 15 15 15 16 16 15 14 14 14 14 14
17 17 15 15 15 16 15 15 16 14 14 13 14 16 16 16 17 18 17 17 16 15 15 14 14 15 15 15 15 15 14 15 14 15 15 15 15 17 17 17 15 14 13 14

GFSNW_con_lsi_252.txt.gz
Lid_Strength_Index
6 6 6 6 5 5 6 9 12 7 6 9 9 11 10 8 8 7 8 8 9 11 10 11 11 12 11 9 10 13 12 13 17 17 13 13 14 15 15 18 19 18 20 18
6 6 6 6 6 6 7 11 12 7 8 14 11 9 9 8 9 9 9 10 9 8 11 13 10 10 8 9 11 12 12 15 18 17 17 16 16 15 14 14 15 18 21 19
5 6 6 6 6 6 8 12 16 13 11 12 15 15 13 11 11 11 12 12 9 10 11 9 11 11 10 12 10 9 10 13 15 17 16 16 18 15 14 15 18 17 17 15
4 4 6 6 6 6 9 12 15 14 16 15 16 16 16 16 15 14 13 13 15 15 14 12 12 10 10 12 11 11 12 15 13 13 12 13 14 15 14 15 15 16 15 15
3 3 4 4 4 5 9 13 14 14 15 15 15 16 16 16 15 15 15 16 16 16 16 16 16 15 15 15 13 13 13 16 15 16 14 13 15 13 13 13 14 14 14 15
-0 1 3 4 4 4 8 8 9 11 14 14 15 15 15 15 14 13 13 14 15 15 14 12 12 12 13 14 15 15 15 16 16 18 15 15 18 15 14 13 12 12 15 13
-1 -1 -1 0 2 3 7 7 8 12 15 14 14 13 13 14 14 15 13 13 14 12 11 10 11 12 13 13 13 12 15 15 16 18 17 22 16 14 13 13 13 12 12 12
-1 -1 -1 -1 -1 -1 2 4 9 11 13 11 11 12 12 12 11 12 13 11 10 9 12 15 16 16 15 15 13 13 12 14 16 18 19 16 15 16 16 16 16 13 14 13
-2 -1 -1 -1 -1 -1 1 2 3 7 11 12 10 11 11 13 13 13 12 9 9 9 13 15 18 19 17 18 17 13 12 12 15 16 20 21 17 16 13 13 18 13 12 12
-1 -1 -1 -1 -1 -1 -0 2 2 6 10 8 8 10 11 9 11 12 11 11 11 9 14 16 17 17 13 17 18 19 16 15 17 17 17 15 12 12 11 18 17 12 12 11
-1 -1 -1 -1 -1 -1 -0 3 2 5 8 6 5 6 9 8 9 11 9 10 10 12 14 14 15 15 13 14 13 16 17 17 17 16 17 18 11 12 14 12 11 10 10 10
-1 -1 -1 -1 -1 -1 -1 4 1 3 7 7 4 4 4 5 5 7 7 9 9 9 11 11 11 13 12 13 16 11 14 12 14 14 15 11 10 9 9 9 9 9 9 9
-1 -1 -1 -1 -1 -1 -0 3 2 3 6 7 6 7 4 3 3 3 9 8 6 7 6 10 10 12 11 15 13 13 10 9 12 11 10 8 8 8 8 8 8 7 8 8
-1 -1 -1 -1 -1 -1 -1 3 2 3 6 9 8 3 5 3 3 3 3 5 5 5 5 8 10 11 8 12 11 11 10 10 11 11 9 8 8 8 7 7 8 8 8 8
-1 -1 -1 -1 -1 -1 0 1 1 1 5 10 9 6 5 4 4 4 4 4 5 6 8 9 10 8 10 11 11 11 9 10 12 12 8 8 9 8 7 8 8 8 9 10
-1 -1 -1 -1 -1 -0 3 6 2 0 1 7 13 7 7 7 6 5 5 4 5 6 7 8 7 7 8 11 13 9 8 8 8 9 7 7 7 8 9 10 9 8 9 9
-1 -1 -1 -1 -1 1 4 5 2 -1 1 6 11 11 9 8 8 6 6 5 5 6 7 8 8 8 8 10 13 9 8 10 9 9 8 9 10 11 10 10 11 9 10 10
-1 -1 -1 -1 -1 1 4 1 -1 -0 4 6 13 12 11 8 10 8 5 7 7 7 7 8 9 9 9 12 10 11 11 10 11 11 11 11 11 11 11 11 11 12 12 11
-1 -1 -1 1 2 5 4 -1 -1 0 4 11 10 15 15 8 10 8 7 7 10 7 9 9 8 12 12 11 13 13 13 13 13 12 11 11 12 12 12 12 13 13 13 12
-1 1 5 6 4 -1 -0 3 6 6 6 6 10 10 12 9 10 11 8 8 10 13 11 10 12 12 14 14 14 15 15 15 13 13 12 13 13 13 13 13 13 12 12 12
3 6 7 5 2 4 6 8 9 9 10 8 10 9 10 8 11 11 8 11 9 14 14 14 13 14 20 17 18 16 15 14 15 14 13 13 13 14 14 13 12 12 12 12
5 5 5 5 6 7 9 11 10 10 12 11 10 11 9 9 8 9 8 12 12 18 14 15 18 19 16 17 17 15 15 15 14 14 16 14 13 13 13 13 12 12 12 12
5 7 9 9 12 13 14 18 16 14 13 11 11 12 11 11 10 10 11 14 15 13 16 17 19 16 17 19 17 16 15 15 14 13 13 13 14 13 14 14 13 14 15 14
8 10 14 14 16 16 15 15 15 13 11 11 11 12 12 10 12 11 14 13 14 17 21 22 19 18 17 16 15 15 16 15 15 14 14 14 15 15 13 13 14 15 15 14
12 13 14 16 16 16 16 15 14 13 13 11 13 12 11 13 13 13 14 17 20 19 21 19 18 16 16 16 15 16 17 18 19 18 17 17 17 17 16 15 16 16 16 15
14 16 16 15 16 16 15 14 14 14 14 11 11 13 14 15 15 16 18 19 21 19 17 15 15 15 16 16 16 16 18 19 19 21 19 17 19 19 18 18 18 17 17 16
17 18 15 15 15 16 16 15 16 14 14 13 13 15 16 15 16 18 18 20 18 16 15 15 16 17 19 19 16 15 16 17 19 22 20 19 20 22 23 20 17 17 15 16

GFSNW_con_lsi_255.txt.gz
Lid_Strength_Index
5 6 6 5 5 5 6 9 11 6 4 9 9 11 9 7 8 7 8 8 10 12 11 12 12 13 10 9 10 12 11 14 18 17 14 14 15 15 15 18 19 19 21 17
5 5 6 6 6 6 8 11 12 7 7 14 11 9 9 8 9 9 9 10 9 9 11 13 11 10 8 9 10 12 12 14 19 18 17 16 16 16 15 15 16 18 20 18
4 4 5 5 6 5 8 12 15 12 10 13 15 15 14 12 11 11 12 11 10 10 12 10 12 11 9 10 9 8 10 12 15 17 16 16 18 16 15 15 18 17 17 16
2 2 3 4 5 5 8 12 15 13 16 15 16 16 16 16 15 13 13 13 14 15 15 12 12 11 10 11 11 11 11 15 13 13 12 14 15 16 15 16 15 17 15 15
2 2 2 3 3 4 9 12 13 13 14 15 15 15 16 16 15 15 15 15 15 16 16 16 17 16 15 16 14 14 13 15 14 15 12 13 15 14 15 14 14 14 13 15
-0 -0 0 1 2 4 8 8 7 11 13 14 15 15 14 14 14 13 13 14 15 16 14 13 12 13 12 14 15 15 16 16 17 17 15 15 17 15 13 13 13 13 15 13
-1 -2 -1 -1 -0 1 6 6 8 11 14 13 14 13 13 13 13 14 13 12 14 12 10 11 11 11 12 12 13 13 15 15 16 18 17 21 17 16 13 12 11 11 11 11
-2 -1 -1 -1 -1 -1 3 4 6 11 15 12 11 11 11 11 11 12 12 11 10 9 11 15 16 16 15 14 14 13 13 14 17 19 19 16 15 14 16 16 16 13 11 10
-1 -1 -1 -2 -1 -1 1 3 3 6 10 13 10 11 11 13 13 13 11 9 8 9 12 14 19 19 17 18 16 13 13 13 15 16 19 20 18 16 13 13 17 14 12 13
-2 -1 -1 -1 -1 -1 -0 2 2 6 9 8 8 10 10 9 10 12 10 9 10 8 13 16 17 18 14 17 17 18 16 15 17 17 18 16 12 12 12 18 17 12 12 12
-1 -1 -1 -1 -1 -1 -0 2 1 4 8 6 6 5 7 8 8 11 8 10 9 10 13 13 15 15 14 14 13 15 16 16 17 15 17 18 11 12 14 12 12 11 12 11
-1 -1 -1 -1 -1 -1 -1 3 1 3 7 8 4 4 4 5 5 7 7 10 9 8 12 13 14 14 14 14 17 11 15 12 14 13 14 10 8 9 9 9 9 9 10 10
-1 -1 -1 -1 -1 -1 -1 3 2 4 7 7 8 8 5 4 4 3 10 10 6 8 7 11 11 13 13 16 14 14 11 9 11 11 10 9 8 7 6 7 8 7 8 8
-1 -1 -1 -1 -1 -1 -0 2 2 3 6 11 10 4 6 3 4 4 4 6 6 6 6 10 10 13 9 13 11 12 10 10 11 11 10 9 8 7 7 7 6 8 7 8
-1 -1 -1 -1 -1 -1 0 1 2 2 6 11 10 7 5 4 5 5 5 5 7 8 9 9 10 11 9 11 9 11 10 10 12 12 9 9 9 8 8 8 8 7 8 9
-1 -1 -1 -1 -1 -1 3 6 3 1 2 9 13 8 9 7 6 6 7 6 6 6 7 9 9 8 8 11 15 10 8 8 7 8 8 8 7 9 11 10 10 9 8 9
-1 -1 -1 -1 -1 1 4 6 3 1 2 8 16 14 11 9 8 10 10 6 6 6 7 8 8 11 7 10 12 9 8 9 9 10 10 9 10 10 8 9 10 10 10 10
-1 -1 -1 -1 -1 1 4 2 -1 0 5 8 17 16 13 9 12 13 8 9 7 7 7 7 8 8 8 12 10 11 12 11 11 12 11 12 11 10 10 10 11 11 11 11
-1 -1 -1 2 3 5 4 0 -1 1 7 14 13 18 18 10 12 11 9 11 12 9 9 9 8 10 12 12 14 14 14 14 14 13 12 12 13 12 12 12 12 12 12 12
-1 3 7 7 5 1 0 4 6 6 6 7 10 13 15 11 12 13 12 11 13 15 11 9 11 12 14 15 15 16 16 15 14 17 13 13 14 13 13 13 12 12 12 12
4 7 7 6 2 5 9 10 12 11 11 8 9 11 13 9 12 11 8 11 13 14 14 14 15 15 20 18 18 17 17 16 15 15 14 13 14 14 14 12 12 12 12 12
5 7 5 6 7 9 12 15 14 13 15 12 14 13 11 12 10 10 10 12 12 17 15 16 19 19 15 17 18 16 16 16 15 14 17 15 13 14 14 13 13 13 13 13
5 8 11 11 14 14 15 21 17 18 16 14 13 14 12 10 10 10 11 16 16 13 18 19 21 16 16 17 16 15 15 15 15 14 14 14 14 13 14 14 13 14 14 14
9 11 14 16 21 18 18 19 18 15 13 13 13 13 12 12 12 11 14 13 14 19 23 22 20 18 17 16 15 16 17 18 18 17 16 16 16 16 14 14 14 15 14 13
13 14 16 17 17 18 18 17 14 13 13 12 12 12 11 12 13 13 13 16 19 20 22 18 18 17 18 17 15 17 17 18 19 18 17 17 17 18 16 16 16 16 15 14
15 16 19 16 17 18 15 15 15 14 14 12 10 12 14 14 14 16 17 18 22 19 16 14 14 15 16 16 16 16 17 18 19 21 20 18 20 20 19 19 18 18 17 17
19 21 16 16 16 17 16 16 17 15 14 14 13 15 16 14 16 18 18 21 18 16 15 15 16 17 17 18 17 15 16 17 19 23 20 19 21 25 25 20 17 19 17 17

GFSNW_con_lsi_258.txt.gz
Lid_Strength_Index
4 4 4 5 4 4 5 9 11 6 4 9 8 11 9 8 9 7 8 9 10 11 11 13 12 12 10 9 9 12 11 13 18 17 15 14 15 15 15 17 18 19 21 17
4 5 5 5 5 5 7 11 11 7 6 12 11 9 9 8 9 9 9 10 9 8 11 13 11 10 8 8 10 12 11 13 17 16 16 15 17 16 15 15 16 17 20 17
3 4 4 5 5 5 8 12 15 12 10 13 15 15 14 13 11 11 12 11 10 10 11 10 12 11 10 10 10 8 9 12 15 17 15 16 18 17 15 14 17 16 16 15
1 2 3 4 4 4 8 12 14 13 16 16 16 16 16 16 16 14 14 14 15 16 16 15 13 14 13 11 12 11 11 15 13 13 12 12 15 16 15 16 15 16 15 15
1 1 1 1 2 4 9 12 13 12 14 14 15 15 15 16 15 15 15 16 15 16 16 16 17 16 15 15 14 14 14 17 16 15 12 12 14 12 13 14 14 14 13 13
1 1 1 0 1 3 8 7 8 11 13 14 15 15 14 14 14 13 13 14 14 15 13 13 13 13 13 14 15 15 16 16 17 18 15 15 17 14 13 12 12 13 15 13
-0 0 -0 0 1 2 6 6 7 11 14 13 14 13 13 13 13 14 13 12 14 12 10 10 11 12 13 13 13 12 15 15 16 18 17 21 17 16 15 14 12 11 11 10
-1 -1 -1 -1 -1 -0 5 5 7 10 13 12 12 12 12 11 11 12 12 11 10 9 12 16 17 16 15 14 13 13 13 15 17 19 19 17 16 15 17 15 16 13 11 10
-1 -1 -1 -1 -1 -1 1 3 4 6 10 12 9 11 11 12 13 13 11 9 8 10 12 15 19 20 18 18 16 13 13 13 16 17 19 21 18 16 14 14 18 14 12 12
-1 -2 -1 -1 -1 -2 -0 2 2 5 9 8 8 11 10 9 11 12 11 10 9 9 13 16 18 18 14 19 18 18 16 15 17 17 18 16 13 12 12 18 17 13 12 12
-1 -2 -1 -1 -1 -2 0 2 1 4 8 7 6 6 8 8 8 11 9 10 10 10 13 16 16 17 15 15 16 17 16 16 17 16 17 19 11 12 15 12 11 11 12 12
-1 -1 -1 -1 -1 -1 -1 3 1 2 5 7 4 4 4 5 5 6 7 10 9 8 10 11 13 16 17 16 19 12 16 12 14 13 13 9 8 9 8 8 9 9 8 8
-1 -1 -1 -1 -1 -1 -1 2 2 3 7 7 7 7 5 4 4 3 8 10 7 7 7 12 13 14 14 17 15 14 11 9 11 12 11 9 8 8 7 7 7 6 6 6
-1 -1 -1 -1 -1 -1 -1 2 2 3 6 10 11 5 6 4 4 4 4 6 6 6 7 11 13 12 11 14 12 13 10 10 11 11 9 9 9 8 8 8 7 8 7 6
-1 -1 -1 -1 -1 -1 1 2 1 1 5 11 12 8 6 5 4 5 5 6 7 11 10 10 11 13 11 13 13 12 9 10 11 11 8 8 8 7 8 9 9 10 10 10
-1 -1 -1 -1 -1 -0 2 6 2 1 2 8 11 9 9 8 7 6 6 7 6 7 11 13 12 9 11 15 16 10 8 7 6 8 8 7 7 8 8 9 9 9 10 10
-1 -1 -1 -1 -1 2 4 7 3 0 2 8 11 11 9 8 8 11 11 10 8 10 12 12 14 12 8 13 13 9 9 10 9 10 10 10 11 11 10 9 8 8 9 8
-1 -1 -1 -1 -1 1 4 2 0 1 6 7 14 15 13 9 12 12 11 12 10 12 11 11 10 10 8 11 10 13 12 11 11 12 12 12 11 11 11 11 11 11 11 10
-1 -1 -1 1 3 5 4 0 -0 1 7 12 18 18 18 10 13 10 9 10 13 12 11 10 9 13 13 12 14 14 14 14 15 14 13 12 13 13 13 12 12 13 12 11
-0 4 8 8 5 1 0 3 6 6 6 11 15 14 16 12 13 11 11 10 13 16 11 9 10 12 14 15 15 15 15 15 15 17 14 14 14 13 13 13 13 12 12 12
5 9 11 6 2 6 10 11 13 12 12 10 10 12 14 11 13 12 10 14 13 17 15 12 16 15 20 18 16 16 16 17 17 17 15 14 14 15 14 14 13 12 12 12
5 8 5 6 8 11 14 15 15 13 15 13 12 11 12 13 10 11 10 12 14 19 16 17 20 21 16 19 19 18 18 17 16 16 16 15 14 14 15 14 13 13 12 12
5 9 9 13 13 16 17 21 19 19 17 15 14 15 13 12 11 10 11 14 15 13 19 19 21 17 17 20 19 17 16 17 15 15 14 15 15 14 16 14 13 13 13 13
9 12 15 17 22 19 18 20 20 15 14 14 14 14 12 12 12 11 14 12 14 19 25 24 21 20 18 17 15 17 17 17 17 16 16 16 16 17 15 15 15 15 14 13
14 15 17 18 18 19 19 18 16 15 14 13 12 12 11 12 13 13 13 16 20 21 24 19 17 17 18 17 16 17 17 19 20 20 18 18 18 18 18 16 16 16 16 15
16 17 19 16 18 19 16 16 16 15 16 13 11 12 14 14 14 15 17 17 22 19 16 14 13 14 15 15 15 16 18 20 20 21 20 18 20 20 19 19 19 19 18 17
19 22 17 17 17 19 19 19 19 17 16 15 14 15 17 15 16 17 17 19 17 16 15 14 14 15 16 16 16 15 15 17 19 22 21 20 20 26 27 22 18 19 17 18

GFSNW_con_lsi_264.txt.gz
Lid_Strength_Index
3 3 3 4 3 4 6 9 11 5 4 9 9 11 9 8 9 8 9 10 11 12 11 13 13 13 12 9 10 12 11 14 18 16 15 14 15 14 14 16 17 18 20 17
2 3 3 3 4 4 7 10 11 8 6 12 11 9 9 8 9 9 10 11 10 10 11 14 12 11 9 9 10 12 11 13 17 16 16 15 16 15 14 14 15 16 19 16
1 2 2 3 3 4 6 10 14 11 11 12 13 12 12 11 11 11 11 11 10 10 12 10 12 11 10 10 10 8 8 12 15 16 16 15 16 16 14 13 15 15 15 14
-1 0 1 2 3 3 7 10 13 12 15 15 15 15 15 15 15 13 13 13 13 13 13 12 12 12 12 11 11 11 11 15 13 12 12 12 13 14 14 15 15 15 14 13
-0 -1 -0 1 2 3 8 11 12 12 13 13 14 14 15 15 15 15 15 15 15 15 16 15 16 16 15 15 13 13 13 15 15 16 14 14 15 14 14 14 13 13 13 14
-0 -0 -0 -0 0 2 7 8 7 11 12 13 14 14 14 14 14 13 13 14 15 15 15 14 13 13 13 14 15 16 16 17 18 20 16 17 19 17 15 14 13 14 15 14
0 0 -0 -0 -1 1 5 6 8 12 16 13 13 12 12 13 13 14 13 13 14 12 11 11 12 13 13 14 14 13 16 15 16 18 18 22 17 15 15 16 16 16 16 15
-0 -0 -0 -0 -1 0 3 4 7 11 15 12 12 12 12 11 11 12 12 11 11 10 11 16 18 17 16 15 14 14 13 14 17 19 19 17 16 16 16 17 17 15 16 15
-0 -0 -0 -0 -0 -1 2 4 3 8 13 13 10 11 11 13 12 12 11 9 9 10 13 15 20 20 18 18 17 12 12 13 16 18 20 21 17 15 13 13 18 14 14 14
-1 -0 -0 -0 -1 -1 1 3 3 5 9 9 9 12 11 10 11 14 12 10 10 9 14 17 18 20 16 20 19 18 16 16 18 17 18 17 13 13 13 19 18 13 13 13
-1 -0 -0 -0 -0 -1 1 3 2 5 8 8 7 8 9 9 10 14 11 12 11 11 14 17 17 17 16 17 16 17 17 19 18 17 19 20 9 10 14 12 11 11 11 11
-1 -1 -0 0 0 -0 0 3 1 2 6 7 6 5 5 6 6 8 9 11 11 10 12 14 16 16 19 19 21 15 18 15 16 15 15 10 8 9 9 8 9 9 9 9
-1 -1 -1 -1 -1 -0 0 2 2 3 7 7 7 7 5 5 5 4 9 8 7 8 8 12 14 17 16 18 18 16 13 11 14 14 13 10 9 9 9 8 9 8 8 9
-1 -1 -1 -1 -1 -1 0 2 2 3 6 9 11 7 7 5 5 4 5 6 6 5 6 9 12 15 13 16 14 15 12 11 13 12 11 12 11 10 8 7 7 8 8 8
-1 -1 -1 -1 -1 -1 1 2 1 2 5 11 12 9 8 7 6 5 5 5 7 8 9 11 13 12 12 14 13 15 12 13 14 15 10 12 11 10 8 9 9 10 10 10
-1 -1 -1 -1 -1 -0 2 6 2 1 2 7 15 11 11 8 7 7 5 6 7 7 8 10 11 10 11 16 19 12 12 10 10 12 12 10 9 9 11 11 11 10 9 9
-1 -1 -1 -1 -1 3 6 8 5 1 2 7 15 14 11 8 7 8 7 6 7 8 10 13 15 14 11 19 18 10 12 13 13 13 12 11 12 13 11 11 11 10 10 10
-1 -1 -1 -1 -0 2 5 3 0 1 5 8 15 16 14 9 11 10 9 9 8 9 9 12 11 11 13 15 13 15 15 14 13 14 13 13 12 12 12 11 12 12 12 11
-1 -1 -1 1 4 6 5 1 1 2 5 12 15 17 18 9 11 9 9 10 12 12 12 12 11 13 14 12 14 16 16 16 16 15 14 14 14 14 14 14 13 14 13 13
0 5 9 13 6 1 1 4 6 6 7 13 16 15 17 12 10 11 11 10 15 16 13 11 12 14 15 17 18 18 18 18 16 18 16 15 15 15 15 15 14 13 13 13
9 15 15 8 3 7 9 14 14 14 15 11 10 15 16 12 14 12 10 16 17 20 16 15 17 17 21 19 20 20 20 20 19 18 17 16 16 16 16 15 13 13 13 13
7 7 5 6 9 13 15 16 16 14 16 15 12 11 12 15 13 15 14 16 15 20 18 17 22 23 17 18 19 18 20 21 19 18 19 17 16 16 16 16 15 15 14 14
5 9 11 12 14 19 21 25 21 19 16 16 15 17 15 13 12 13 13 14 16 15 18 20 25 18 17 19 17 16 17 18 17 16 15 15 15 14 16 17 16 16 17 16
9 13 15 17 23 21 21 21 21 16 15 15 14 14 14 13 12 12 14 12 14 18 23 25 22 20 19 18 16 17 17 17 17 17 16 16 16 16 15 16 17 18 17 16
12 14 19 19 18 20 20 19 17 16 16 16 16 15 13 14 14 14 14 16 19 21 23 19 17 15 15 15 15 16 16 17 17 17 17 16 16 17 17 16 18 18 18 17
15 18 19 17 19 20 18 18 18 18 18 15 15 16 16 18 16 17 18 19 22 19 16 14 13 13 14 14 14 14 14 15 15 16 16 15 16 17 17 18 19 19 18 18
19 22 18 18 18 19 19 19 20 20 21 20 19 21 21 20 21 20 18 21 17 16 16 14 14 16 17 17 16 15 15 16 17 18 17 17 18 24 24 20 17 18 17 17

GFSNW_con_lsi_267.txt.gz
Lid_Strength_Index
3 3 2 3 3 3 6 8 12 6 3 9 9 11 9 8 9 9 9 10 11 12 12 13 14 13 12 10 10 12 11 14 17 16 14 14 14 14 14 16 17 18 19 17
2 2 2 2 2 3 6 9 10 7 7 12 11 9 9 8 9 9 10 11 10 10 11 14 12 12 10 9 10 11 11 13 17 16 15 14 15 14 14 14 14 16 18 16
1 1 2 2 2 3 5 9 13 11 10 12 13 11 11 11 11 12 10 10 10 11 12 10 12 12 11 10 10 8 9 12 14 16 16 15 15 15 14 13 15 15 14 13
-0 0 1 1 2 2 5 9 12 11 14 14 14 14 15 15 15 13 12 13 13 13 13 12 12 13 12 11 11 10 11 15 13 12 12 12 13 13 14 14 14 15 14 14
0 -0 -0 0 1 2 6 10 11 11 13 13 14 14 15 15 15 15 15 15 15 15 15 15 16 15 14 14 13 13 12 15 15 15 14 14 15 15 14 13 13 13 13 14
-0 -0 0 -0 -0 2 6 7 6 9 12 13 14 14 14 14 13 13 12 13 14 15 15 13 13 13 13 13 15 15 15 16 18 20 16 17 19 18 16 15 17 16 17 17
0 -0 0 -0 -1 1 5 6 7 11 14 13 13 13 13 13 13 14 13 13 14 12 10 11 12 12 13 13 14 13 16 15 16 19 18 22 18 15 15 17 17 16 16 16
-0 0 0 0 -0 -0 3 4 7 11 15 12 12 11 12 12 11 12 12 12 11 10 11 17 18 17 16 15 14 14 13 15 18 19 19 16 17 16 16 16 17 14 15 14
-0 0 0 0 0 -1 2 3 3 8 12 13 10 11 10 12 12 12 11 10 9 10 13 18 22 21 18 18 17 13 13 13 16 17 19 21 17 14 12 13 18 13 13 14
-0 1 1 0 -0 -0 1 3 2 5 11 9 9 11 11 10 11 13 11 10 10 9 14 18 19 20 16 20 19 17 15 15 17 17 18 17 13 12 12 20 19 13 13 13
-1 -0 0 0 0 -0 1 3 2 4 8 9 8 8 9 9 10 13 11 11 11 12 15 17 17 18 17 18 17 17 17 18 19 18 20 21 10 11 15 13 12 11 12 11
-1 -1 -0 -0 0 0 0 4 2 2 6 7 6 6 6 6 6 8 10 13 12 11 15 16 16 16 18 18 20 14 17 15 16 15 16 10 9 10 9 10 10 10 10 9
-0 -1 -1 -0 0 0 1 3 2 3 7 8 7 8 6 5 5 5 10 8 9 10 10 14 16 18 16 20 19 18 14 11 14 15 13 11 10 10 10 9 9 9 9 10
-1 -1 -1 -1 -1 -0 0 3 2 4 6 11 12 7 8 7 6 5 6 6 6 6 7 10 14 15 14 17 15 16 13 12 13 13 12 12 12 11 10 8 8 9 10 9
-1 -1 -1 -1 -1 -1 1 1 1 2 6 13 13 9 9 8 7 7 6 5 6 8 9 11 14 13 12 15 14 16 13 13 14 14 12 12 12 11 10 12 12 12 12 11
-1 -1 -1 -1 -1 -1 2 6 2 1 2 7 16 11 11 9 8 8 7 5 6 7 8 10 10 10 11 15 19 13 12 11 10 12 12 11 11 11 13 13 12 11 11 10
-1 -1 -1 -1 -0 2 6 9 6 1 2 9 16 15 11 8 7 8 7 6 7 7 8 10 10 10 10 15 19 13 13 13 13 14 13 13 14 15 14 13 12 11 11 11
-1 -1 -1 -1 -0 2 5 3 0 2 6 10 19 16 14 8 9 10 9 8 8 9 11 12 11 11 13 15 13 15 16 15 14 15 15 14 14 14 14 14 13 13 12 12
-1 -1 -0 2 4 6 5 1 1 3 8 15 16 18 18 9 10 10 10 9 12 10 12 11 10 12 14 13 16 17 17 16 16 15 15 16 16 15 15 15 15 14 13 13
1 5 9 13 5 1 1 5 6 6 7 11 15 16 16 11 10 10 11 10 14 21 14 11 12 13 17 18 19 19 19 18 17 19 17 16 17 16 17 16 15 14 14 13
9 15 15 7 3 7 9 13 14 15 16 11 11 15 17 13 15 12 12 17 17 21 17 16 18 17 22 19 21 20 21 21 20 19 18 17 17 18 17 16 15 15 14 15
7 7 5 7 10 13 15 15 16 16 16 15 14 12 14 15 13 15 13 16 15 20 17 19 22 23 18 19 20 19 20 21 19 18 19 17 16 16 17 16 15 15 15 15
5 9 12 13 15 20 22 25 23 22 16 17 16 17 15 15 12 16 16 18 18 16 19 20 25 19 18 21 19 17 17 18 16 15 15 15 15 14 16 17 15 15 15 15
9 14 17 18 22 20 20 21 20 17 16 17 17 18 16 15 15 14 15 14 15 19 24 25 23 21 20 19 17 18 17 17 17 17 16 16 15 16 15 15 16 16 16 15
12 13 19 20 19 22 21 22 18 17 16 18 18 17 15 16 17 15 15 17 21 23 24 21 18 15 15 14 14 14 15 15 16 16 16 16 15 16 16 15 15 16 16 16
16 18 20 17 20 22 21 21 20 18 18 16 15 18 19 19 18 19 20 22 24 22 18 16 15 15 15 16 16 16 16 17 17 18 17 16 17 17 17 17 18 17 17 17
20 21 17 17 19 21 20 20 20 20 18 18 19 20 20 22 23 23 20 23 19 19 17 16 16 19 18 18 17 16 16 16 18 20 19 18 18 22 23 20 17 18 16 17

GFSNW_con_lsi_270.txt.gz
Lid_Strength_Index
2 2 3 3 3 4 5 7 11 6 5 9 8 11 9 8 8 8 8 8 9 10 10 11 11 11 10 8 8 10 8 10 13 12 11 10 11 11 10 14 15 14 14 14
1 2 2 2 3 4 6 9 9 6 6 12 11 9 9 8 8 8 9 9 8 8 10 12 10 9 8 8 8 9 8 11 15 14 12 11 12 11 11 11 11 14 16 13
1 1 1 1 2 2 5 9 13 10 9 11 11 11 11 11 10 8 9 9 8 9 11 9 10 10 10 9 9 8 8 11 12 14 13 11 13 12 12 11 14 13 13 11
0 0 1 1 1 2 5 9 12 10 13 13 14 14 14 14 14 13 11 12 11 11 12 11 11 9 10 10 10 9 9 14 12 11 11 11 12 12 11 12 11 14 12 11
0 0 0 0 1 2 5 10 10 10 12 12 13 12 14 14 14 14 15 15 14 14 14 14 14 12 13 13 12 12 12 14 12 14 11 11 13 11 11 12 11 12 11 12
-0 -0 0 0 -0 2 6 6 6 8 11 12 12 13 13 13 13 13 12 13 14 15 14 13 12 12 12 13 14 14 14 14 15 16 14 15 17 15 14 14 15 15 16 17
-0 -0 0 0 0 1 3 5 6 9 12 11 12 12 12 13 13 13 13 12 13 12 10 10 11 12 13 13 13 12 15 15 15 17 16 21 17 14 14 16 16 15 16 16
-0 0 0 0 0 0 2 3 5 8 11 10 11 11 12 11 11 12 12 12 10 9 11 14 16 16 15 14 13 13 13 14 16 17 17 16 16 16 16 16 16 14 15 15
-0 -0 0 -0 0 -0 2 2 3 5 9 11 9 10 10 12 12 12 11 9 8 9 12 14 18 19 17 18 15 12 12 12 15 16 18 19 16 14 12 12 16 13 13 13
-1 -0 1 1 0 0 1 3 2 4 9 8 7 9 10 9 10 12 11 10 10 9 13 16 17 17 15 18 18 16 15 15 17 16 17 15 13 12 11 19 17 12 12 12
-1 -0 1 1 1 -0 1 3 2 3 7 7 6 6 8 8 9 11 10 10 10 11 14 15 15 15 15 16 15 14 15 16 16 15 17 19 9 11 15 12 11 11 10 10
-1 -1 -0 -0 1 0 1 4 2 2 4 6 5 5 5 5 6 7 8 10 10 9 12 13 13 14 15 14 16 13 15 13 14 13 14 9 8 9 9 9 10 10 9 8
-1 -1 -1 -0 -0 0 1 2 3 4 7 7 5 6 5 4 4 4 8 7 7 8 8 10 11 14 12 15 14 13 12 10 12 12 10 9 7 7 8 8 9 8 8 9
-1 -1 -1 -1 -0 -0 1 2 2 4 6 9 8 6 6 5 5 4 4 5 5 6 6 9 10 12 10 12 12 12 10 10 11 11 10 9 9 9 8 7 8 8 9 9
-1 -1 -1 -1 -1 -1 1 2 2 2 5 9 9 8 8 7 6 6 5 5 6 7 8 9 10 10 10 11 10 11 10 10 11 11 8 9 9 8 9 10 10 10 10 10
-1 -1 -1 -1 -1 -0 2 6 2 2 2 7 10 9 9 7 6 6 6 5 6 6 7 8 8 9 8 11 11 9 8 7 7 8 9 9 9 9 11 11 10 10 10 10
-1 -1 -1 -1 -0 2 5 6 5 1 2 7 10 10 9 8 6 7 6 5 6 6 7 8 8 8 7 9 12 9 10 10 10 11 10 10 11 11 11 11 11 10 10 10
-1 -1 -1 -0 0 2 4 2 1 2 6 7 12 12 11 8 9 9 8 8 7 7 8 9 9 8 9 11 9 12 12 11 12 12 12 12 12 11 12 12 11 11 11 11
-1 -0 0 3 3 5 4 1 1 3 5 9 10 11 12 8 9 8 8 7 10 8 9 9 9 11 12 12 14 14 14 14 14 13 12 12 13 13 13 13 13 13 13 12
2 3 6 8 5 0 1 4 6 6 7 9 10 12 12 9 9 9 9 9 11 13 11 9 11 12 16 17 16 16 16 16 15 15 14 14 14 14 14 14 13 13 13 13
6 9 9 5 3 6 8 11 11 12 12 10 11 12 13 10 12 11 10 13 13 16 13 13 14 14 18 16 17 17 17 16 15 15 15 14 14 15 15 14 13 13 13 13
5 6 4 6 8 11 13 14 14 14 14 13 12 12 11 11 10 11 12 13 14 17 13 14 16 18 17 17 17 16 15 16 16 15 16 15 14 13 14 14 13 13 13 13
4 8 10 11 12 17 17 19 17 17 14 13 13 13 11 12 11 12 13 15 16 14 15 17 19 17 16 17 17 15 15 16 16 15 14 13 13 13 13 14 13 13 13 13
8 11 15 14 17 16 16 15 15 16 14 14 14 13 12 12 13 12 14 13 14 17 20 19 18 17 16 16 15 15 15 14 14 14 14 14 14 14 13 13 13 13 13 13
11 12 15 16 17 18 18 18 16 16 15 14 14 13 13 13 14 13 14 16 18 19 19 18 16 15 15 15 15 15 15 15 16 15 15 15 15 15 15 13 13 13 14 14
14 15 17 16 16 18 17 17 17 17 16 14 13 15 16 15 16 17 17 19 20 19 17 15 15 16 16 16 15 15 15 16 15 16 16 15 16 16 15 15 15 15 15 15
17 18 15 15 16 17 18 17 18 18 16 15 15 17 17 17 19 19 18 19 17 17 16 16 16 17 17 16 16 15 15 15 15 16 16 16 16 17 19 18 15 15 15 15